Time,TemperatureF,DewpointF,PressureIn,WindDirection,WindDirectionDegrees,WindSpeedMPH,WindSpeedGustMPH,Humidity,HourlyPrecipIn,Conditions,Clouds,dailyrainin,SolarRadiationWatts/m^2,SoftwareType,DateUTC
2013-03-29 00:01:00,29.8,20.2,30.29,SW,229,0.0,0.0,67,0.00,,CLR,0.00,0.00,VWS V14.01,2013-03-29 05:01:00,
2013-03-29 00:06:00,29.1,19.9,30.29,SW,229,0.0,0.0,68,0.00,,CLR,0.00,0.00,VWS V14.01,2013-03-29 05:06:00,
2013-03-29 00:11:00,28.8,19.2,30.29,SW,229,0.0,0.0,67,0.00,,CLR,0.00,0.00,VWS V14.01,2013-03-29 05:11:00,
2013-03-29 00:17:00,28.6,18.7,30.29,SW,229,0.0,0.0,66,0.00,,CLR,0.00,0.00,VWS V14.01,2013-03-29 05:17:00,
2013-03-29 00:22:00,28.4,18.9,30.29,SW,229,0.0,0.0,67,0.00,,CLR,0.00,0.00,VWS V14.01,2013-03-29 05:22:00,
2013-03-29 00:27:00,28.5,19.0,30.29,SW,229,0.0,0.0,67,0.00,,CLR,0.00,0.00,VWS V14.01,2013-03-29 05:27:00,
2013-03-29 00:32:00,28.5,19.0,30.29,SW,229,0.0,0.0,67,0.00,,CLR,0.00,0.00,VWS V14.01,2013-03-29 05:32:00,
2013-03-29 00:37:00,28.4,18.9,30.29,SW,229,0.0,0.0,67,0.00,,CLR,0.00,0.00,VWS V14.01,2013-03-29 05:37:00,
2013-03-29 00:42:00,28.4,19.2,30.29,SW,229,0.0,0.0,68,0.00,,CLR,0.00,0.00,VWS V14.01,2013-03-29 05:42:00,
2013-03-29 00:47:00,28.5,19.3,30.29,SW,229,0.0,0.0,68,0.00,,CLR,0.00,0.00,VWS V14.01,2013-03-29 05:47:00,
2013-03-29 00:52:00,28.5,19.3,30.29,SW,229,0.0,0.0,68,0.00,,CLR,0.00,0.00,VWS V14.01,2013-03-29 05:52:00,
2013-03-29 00:57:00,28.5,19.3,30.29,SW,229,0.0,0.0,68,0.00,,CLR,0.00,0.00,VWS V14.01,2013-03-29 05:57:00,
2013-03-29 01:02:00,27.9,19.1,30.30,SW,229,1.0,2.0,69,0.00,,CLR,0.00,0.00,VWS V14.01,2013-03-29 06:02:00,
2013-03-29 01:07:00,27.2,19.4,30.30,SW,229,1.0,2.0,72,0.00,,CLR,0.00,0.00,VWS V14.01,2013-03-29 06:07:00,
2013-03-29 01:12:00,27.2,19.4,30.30,SW,229,0.0,2.0,72,0.00,,CLR,0.00,0.00,VWS V14.01,2013-03-29 06:12:00,
2013-03-29 01:17:00,27.5,19.7,30.30,SW,229,0.0,2.0,72,0.00,,CLR,0.00,0.00,VWS V14.01,2013-03-29 06:17:00,
2013-03-29 01:22:00,27.7,19.9,30.30,SW,229,0.0,2.0,72,0.00,,CLR,0.00,0.00,VWS V14.01,2013-03-29 06:22:00,
2013-03-29 01:27:00,27.8,20.0,30.30,SW,229,0.0,2.0,72,0.00,,CLR,0.00,0.00,VWS V14.01,2013-03-29 06:27:00,
2013-03-29 01:32:00,28.0,19.8,30.30,SW,229,0.0,0.0,71,0.00,,CLR,0.00,0.00,VWS V14.01,2013-03-29 06:32:00,
2013-03-29 01:37:00,28.1,19.6,30.30,SW,229,0.0,1.0,70,0.00,,CLR,0.00,0.00,VWS V14.01,2013-03-29 06:37:00,
2013-03-29 01:42:00,27.6,19.4,30.30,SW,229,0.0,1.0,71,0.00,,CLR,0.00,0.00,VWS V14.01,2013-03-29 06:42:00,
2013-03-29 01:47:00,27.7,19.5,30.30,SW,229,0.0,1.0,71,0.00,,CLR,0.00,0.00,VWS V14.01,2013-03-29 06:47:00,
2013-03-29 01:52:00,28.0,19.8,30.30,SW,229,0.0,1.0,71,0.00,,CLR,0.00,0.00,VWS V14.01,2013-03-29 06:52:00,
2013-03-29 01:57:00,28.3,19.8,30.30,SW,229,0.0,1.0,70,0.00,,CLR,0.00,0.00,VWS V14.01,2013-03-29 06:57:00,
2013-03-29 02:02:00,28.5,20.0,30.30,SW,229,0.0,1.0,70,0.00,,CLR,0.00,0.00,VWS V14.01,2013-03-29 07:02:00,
2013-03-29 02:07:00,28.6,19.7,30.30,SW,229,0.0,1.0,69,0.00,,CLR,0.00,0.00,VWS V14.01,2013-03-29 07:07:00,
2013-03-29 02:12:00,28.6,19.4,30.30,SW,229,0.0,1.0,68,0.00,,CLR,0.00,0.00,VWS V14.01,2013-03-29 07:12:00,
2013-03-29 02:17:00,28.2,19.7,30.30,SW,229,0.0,1.0,70,0.00,,CLR,0.00,0.00,VWS V14.01,2013-03-29 07:17:00,
2013-03-29 02:22:00,27.6,19.1,30.30,SW,229,0.0,1.0,70,0.00,,CLR,0.00,0.00,VWS V14.01,2013-03-29 07:22:00,
2013-03-29 02:27:00,27.0,18.9,30.30,SW,229,0.0,1.0,71,0.00,,CLR,0.00,0.00,VWS V14.01,2013-03-29 07:27:00,
2013-03-29 02:32:00,26.6,19.1,30.30,SW,229,0.0,0.0,73,0.00,,CLR,0.00,0.00,VWS V14.01,2013-03-29 07:32:00,
2013-03-29 02:37:00,26.4,18.9,30.30,SW,229,0.0,0.0,73,0.00,,CLR,0.00,0.00,VWS V14.01,2013-03-29 07:37:00,
2013-03-29 02:42:00,26.3,18.8,30.30,SW,229,0.0,0.0,73,0.00,,CLR,0.00,0.00,VWS V14.01,2013-03-29 07:42:00,
2013-03-29 02:47:00,26.1,18.6,30.30,SW,229,0.0,0.0,73,0.00,,CLR,0.00,0.00,VWS V14.01,2013-03-29 07:47:00,
2013-03-29 02:52:00,26.1,19.0,30.30,SW,229,0.0,0.0,74,0.00,,CLR,0.00,0.00,VWS V14.01,2013-03-29 07:52:00,
2013-03-29 02:57:00,25.9,18.8,30.29,SW,229,0.0,0.0,74,0.00,,CLR,0.00,0.00,VWS V14.01,2013-03-29 07:57:00,
2013-03-29 03:02:00,25.7,18.9,30.30,SW,229,0.0,0.0,75,0.00,,CLR,0.00,0.00,VWS V14.01,2013-03-29 08:02:00,
2013-03-29 03:07:00,25.6,18.8,30.30,SW,229,0.0,0.0,75,0.00,,CLR,0.00,0.00,VWS V14.01,2013-03-29 08:07:00,
2013-03-29 03:12:00,25.6,18.8,30.30,SW,229,0.0,0.0,75,0.00,,CLR,0.00,0.00,VWS V14.01,2013-03-29 08:12:00,
2013-03-29 03:17:00,25.4,18.6,30.30,SW,229,0.0,0.0,75,0.00,,CLR,0.00,0.00,VWS V14.01,2013-03-29 08:17:00,
2013-03-29 03:23:00,25.3,18.5,30.30,SW,229,0.0,0.0,75,0.00,,CLR,0.00,0.00,VWS V14.01,2013-03-29 08:23:00,
2013-03-29 03:27:00,25.2,18.4,30.30,SW,229,0.0,0.0,75,0.00,,CLR,0.00,0.00,VWS V14.01,2013-03-29 08:27:00,
2013-03-29 03:33:00,24.8,18.0,30.30,SW,229,0.0,0.0,75,0.00,,CLR,0.00,0.00,VWS V14.01,2013-03-29 08:33:00,
2013-03-29 03:37:00,24.6,18.1,30.30,SW,229,0.0,0.0,76,0.00,,CLR,0.00,0.00,VWS V14.01,2013-03-29 08:37:00,
2013-03-29 03:43:00,24.8,18.6,30.30,SW,229,0.0,0.0,77,0.00,,CLR,0.00,0.00,VWS V14.01,2013-03-29 08:43:00,
2013-03-29 03:48:00,24.8,18.3,30.30,SW,229,0.0,0.0,76,0.00,,CLR,0.00,0.00,VWS V14.01,2013-03-29 08:48:00,
2013-03-29 03:53:00,24.6,18.1,30.30,SW,229,0.0,0.0,76,0.00,,CLR,0.00,0.00,VWS V14.01,2013-03-29 08:53:00,
2013-03-29 03:58:00,24.5,18.3,30.30,SW,229,0.0,0.0,77,0.00,,CLR,0.00,0.00,VWS V14.01,2013-03-29 08:58:00,
2013-03-29 04:03:00,24.4,18.2,30.30,SW,229,0.0,0.0,77,0.00,,CLR,0.00,0.00,VWS V14.01,2013-03-29 09:03:00,
2013-03-29 04:08:00,24.2,18.0,30.29,SW,229,0.0,0.0,77,0.00,,CLR,0.00,0.00,VWS V14.01,2013-03-29 09:08:00,
2013-03-29 04:13:00,24.0,17.9,30.30,SW,229,0.0,0.0,77,0.00,,CLR,0.00,0.00,VWS V14.01,2013-03-29 09:13:00,
2013-03-29 04:18:00,23.8,18.0,30.29,SW,229,0.0,0.0,78,0.00,,CLR,0.00,0.00,VWS V14.01,2013-03-29 09:18:00,
2013-03-29 04:23:00,23.5,17.7,30.30,SW,229,0.0,0.0,78,0.00,,CLR,0.00,0.00,VWS V14.01,2013-03-29 09:23:00,
2013-03-29 04:28:00,23.4,17.9,30.29,SW,229,0.0,0.0,79,0.00,,CLR,0.00,0.00,VWS V14.01,2013-03-29 09:28:00,
2013-03-29 04:33:00,23.1,17.0,30.30,SW,229,0.0,2.0,77,0.00,,CLR,0.00,0.00,VWS V14.01,2013-03-29 09:33:00,
2013-03-29 04:38:00,22.5,17.3,30.30,SW,229,0.0,2.0,80,0.00,,CLR,0.00,0.00,VWS V14.01,2013-03-29 09:38:00,
2013-03-29 04:43:00,22.7,17.2,30.30,SW,229,0.0,2.0,79,0.00,,CLR,0.00,0.00,VWS V14.01,2013-03-29 09:43:00,
2013-03-29 04:48:00,22.5,17.6,30.30,SW,229,0.0,2.0,81,0.00,,CLR,0.00,0.00,VWS V14.01,2013-03-29 09:48:00,
2013-03-29 04:53:00,23.1,17.9,30.30,SW,229,0.0,2.0,80,0.00,,CLR,0.00,0.00,VWS V14.01,2013-03-29 09:53:00,
2013-03-29 04:58:00,23.1,17.6,30.29,SW,229,0.0,2.0,79,0.00,,CLR,0.00,0.00,VWS V14.01,2013-03-29 09:58:00,
2013-03-29 05:03:00,23.0,17.8,30.30,SW,229,0.0,0.0,80,0.00,,CLR,0.00,0.00,VWS V14.01,2013-03-29 10:03:00,
2013-03-29 05:08:00,23.0,17.8,30.30,SW,229,0.0,0.0,80,0.00,,CLR,0.00,0.00,VWS V14.01,2013-03-29 10:08:00,
2013-03-29 05:13:00,22.8,17.6,30.30,SW,229,0.0,0.0,80,0.00,,CLR,0.00,0.00,VWS V14.01,2013-03-29 10:13:00,
2013-03-29 05:18:00,22.5,17.3,30.30,SW,229,0.0,0.0,80,0.00,,CLR,0.00,0.00,VWS V14.01,2013-03-29 10:18:00,
2013-03-29 05:23:00,22.2,17.3,30.30,SW,229,0.0,0.0,81,0.00,,CLR,0.00,0.00,VWS V14.01,2013-03-29 10:23:00,
2013-03-29 05:28:00,21.9,17.0,30.30,SW,229,0.0,0.0,81,0.00,,CLR,0.00,0.00,VWS V14.01,2013-03-29 10:28:00,
2013-03-29 05:33:00,21.8,17.2,30.30,SW,229,0.0,0.0,82,0.00,,CLR,0.00,0.00,VWS V14.01,2013-03-29 10:33:00,
2013-03-29 05:38:00,21.8,17.2,30.30,SW,229,0.0,0.0,82,0.00,,CLR,0.00,0.00,VWS V14.01,2013-03-29 10:38:00,
2013-03-29 05:43:00,21.6,17.0,30.30,SW,229,0.0,0.0,82,0.00,,CLR,0.00,0.00,VWS V14.01,2013-03-29 10:43:00,
2013-03-29 05:48:00,21.7,17.3,30.30,SW,229,0.0,0.0,83,0.00,,CLR,0.00,0.00,VWS V14.01,2013-03-29 10:48:00,
2013-03-29 05:53:00,21.6,17.0,30.30,SW,229,0.0,0.0,82,0.00,,CLR,0.00,0.00,VWS V14.01,2013-03-29 10:53:00,
2013-03-29 05:58:00,21.5,17.1,30.30,SW,229,1.0,1.0,83,0.00,,CLR,0.00,0.00,VWS V14.01,2013-03-29 10:58:00,
2013-03-29 06:03:00,22.0,17.6,30.30,SW,229,1.0,1.0,83,0.00,,CLR,0.00,0.00,VWS V14.01,2013-03-29 11:03:00,
2013-03-29 06:08:00,22.3,17.6,30.30,SW,229,0.0,1.0,82,0.00,,CLR,0.00,0.00,VWS V14.01,2013-03-29 11:08:00,
2013-03-29 06:13:00,22.5,17.6,30.30,SW,229,1.0,1.0,81,0.00,,CLR,0.00,0.00,VWS V14.01,2013-03-29 11:13:00,
2013-03-29 06:18:00,22.5,17.6,30.30,SW,229,0.0,1.0,81,0.00,,CLR,0.00,0.00,VWS V14.01,2013-03-29 11:18:00,
2013-03-29 06:23:00,22.5,17.9,30.30,SW,229,0.0,1.0,82,0.00,,CLR,0.00,0.00,VWS V14.01,2013-03-29 11:23:00,
2013-03-29 06:28:00,22.7,17.8,30.30,SW,229,0.0,1.0,81,0.00,,CLR,0.00,0.00,VWS V14.01,2013-03-29 11:28:00,
2013-03-29 06:33:00,22.9,18.2,30.30,SW,229,0.0,1.0,82,0.00,,CLR,0.00,0.00,VWS V14.01,2013-03-29 11:33:00,
2013-03-29 06:38:00,23.0,18.0,30.30,SW,229,0.0,1.0,81,0.00,,CLR,0.00,0.00,VWS V14.01,2013-03-29 11:38:00,
2013-03-29 06:43:00,22.9,18.0,30.30,SW,229,0.0,1.0,81,0.00,,CLR,0.00,0.00,VWS V14.01,2013-03-29 11:43:00,
2013-03-29 06:48:00,22.8,17.9,30.30,SW,229,0.0,1.0,81,0.00,,CLR,0.00,0.00,VWS V14.01,2013-03-29 11:48:00,
2013-03-29 06:53:00,22.7,18.0,30.30,SW,229,0.0,1.0,82,0.00,,CLR,0.00,0.00,VWS V14.01,2013-03-29 11:53:00,
2013-03-29 06:58:00,22.7,18.3,30.30,SW,229,0.0,1.0,83,0.00,,CLR,0.00,7.00,VWS V14.01,2013-03-29 11:58:00,
2013-03-29 07:03:00,22.8,18.4,30.30,SW,229,0.0,0.0,83,0.00,,,0.00,11.00,VWS V14.01,2013-03-29 12:03:00,
2013-03-29 07:08:00,22.9,18.5,30.30,SW,229,0.0,1.0,83,0.00,,,0.00,14.00,VWS V14.01,2013-03-29 12:08:00,
2013-03-29 07:13:00,22.9,18.5,30.30,SW,229,0.0,1.0,83,0.00,,,0.00,18.00,VWS V14.01,2013-03-29 12:13:00,
2013-03-29 07:18:00,23.0,18.6,30.30,SW,229,0.0,1.0,83,0.00,,,0.00,21.00,VWS V14.01,2013-03-29 12:18:00,
2013-03-29 07:23:00,23.2,18.8,30.30,SW,229,0.0,1.0,83,0.00,,,0.00,25.00,VWS V14.01,2013-03-29 12:23:00,
2013-03-29 07:28:00,22.9,18.0,30.30,SW,229,0.0,1.0,81,0.00,,,0.00,37.00,VWS V14.01,2013-03-29 12:28:00,
2013-03-29 07:33:00,22.9,18.5,30.30,SW,229,0.0,1.0,83,0.00,,,0.00,47.00,VWS V14.01,2013-03-29 12:33:00,
2013-03-29 07:38:00,23.1,18.7,30.30,SW,229,0.0,1.0,83,0.00,,,0.00,40.00,VWS V14.01,2013-03-29 12:38:00,
2013-03-29 07:43:00,23.3,18.9,30.31,SW,229,0.0,1.0,83,0.00,,,0.00,46.00,VWS V14.01,2013-03-29 12:43:00,
2013-03-29 07:48:00,23.6,19.2,30.31,SW,229,0.0,1.0,83,0.00,,,0.00,58.00,VWS V14.01,2013-03-29 12:48:00,
2013-03-29 07:53:00,24.0,19.3,30.31,SW,229,0.0,1.0,82,0.00,,,0.00,62.00,VWS V14.01,2013-03-29 12:53:00,
2013-03-29 07:58:00,24.5,19.8,30.31,SW,229,0.0,1.0,82,0.00,,,0.00,56.00,VWS V14.01,2013-03-29 12:58:00,
2013-03-29 08:03:00,24.8,19.5,30.31,SW,229,0.0,0.0,80,0.00,,OVC070,0.00,86.00,VWS V14.01,2013-03-29 13:03:00,
2013-03-29 08:08:00,24.7,19.1,30.31,SW,229,0.0,1.0,79,0.00,,OVC070,0.00,111.00,VWS V14.01,2013-03-29 13:08:00,
2013-03-29 08:13:00,24.9,19.6,30.31,SW,229,0.0,1.0,80,0.00,,OVC070,0.00,151.00,VWS V14.01,2013-03-29 13:13:00,
2013-03-29 08:19:00,25.2,19.6,30.31,SW,229,0.0,1.0,79,0.00,,OVC070,0.00,127.00,VWS V14.01,2013-03-29 13:19:00,
2013-03-29 08:24:00,25.9,20.6,30.31,SW,229,0.0,1.0,80,0.00,,OVC070,0.00,100.00,VWS V14.01,2013-03-29 13:24:00,
2013-03-29 08:29:00,26.8,21.5,30.31,SW,229,0.0,1.0,80,0.00,,OVC070,0.00,88.00,VWS V14.01,2013-03-29 13:29:00,
2013-03-29 08:34:00,27.4,21.8,30.31,SW,229,0.0,1.0,79,0.00,,OVC070,0.00,105.00,VWS V14.01,2013-03-29 13:34:00,
2013-03-29 08:39:00,28.0,21.7,30.31,SW,229,0.0,1.0,77,0.00,,OVC070,0.00,146.00,VWS V14.01,2013-03-29 13:39:00,
2013-03-29 08:44:00,28.4,21.5,30.31,SW,229,2.0,2.0,75,0.00,,OVC070,0.00,81.00,VWS V14.01,2013-03-29 13:44:00,
2013-03-29 08:49:00,28.7,21.5,30.31,SW,229,0.0,2.0,74,0.00,,OVC070,0.00,132.00,VWS V14.01,2013-03-29 13:49:00,
2013-03-29 08:54:00,29.1,21.5,30.32,SW,229,0.0,2.0,73,0.00,,OVC070,0.00,193.00,VWS V14.01,2013-03-29 13:54:00,
2013-03-29 08:59:00,29.6,21.7,30.32,SW,229,0.0,2.0,72,0.00,,OVC070,0.00,172.00,VWS V14.01,2013-03-29 13:59:00,
2013-03-29 09:04:00,30.2,21.9,30.31,SW,229,0.0,1.0,71,0.00,,BKN070,0.00,220.00,VWS V14.01,2013-03-29 14:04:00,
2013-03-29 09:09:00,30.7,22.1,30.31,SW,229,0.0,1.0,70,0.00,,BKN070,0.00,163.00,VWS V14.01,2013-03-29 14:09:00,
2013-03-29 09:14:00,31.3,22.3,30.31,SW,229,0.0,1.0,69,0.00,,BKN070,0.00,413.00,VWS V14.01,2013-03-29 14:14:00,
2013-03-29 09:19:00,31.7,22.7,30.31,ENE,71,0.0,1.0,69,0.00,,BKN070,0.00,199.00,VWS V14.01,2013-03-29 14:19:00,
2013-03-29 09:24:00,32.4,23.4,30.31,ENE,71,0.0,1.0,69,0.00,,BKN070,0.00,274.00,VWS V14.01,2013-03-29 14:24:00,
2013-03-29 09:29:00,33.5,22.3,30.31,East,100,1.0,2.0,63,0.00,,BKN070,0.00,373.00,VWS V14.01,2013-03-29 14:29:00,
2013-03-29 09:34:00,35.0,22.5,30.31,East,100,0.0,2.0,60,0.00,,BKN070,0.00,248.00,VWS V14.01,2013-03-29 14:34:00,
2013-03-29 09:39:00,35.9,23.0,30.31,East,100,0.0,2.0,59,0.00,,BKN070,0.00,234.00,VWS V14.01,2013-03-29 14:39:00,
2013-03-29 09:44:00,36.6,23.6,30.31,East,100,0.0,2.0,59,0.00,,BKN070,0.00,411.00,VWS V14.01,2013-03-29 14:44:00,
2013-03-29 09:49:00,37.6,23.8,30.31,South,172,1.0,3.0,57,0.00,,BKN070,0.00,504.00,VWS V14.01,2013-03-29 14:49:00,
2013-03-29 09:54:00,38.2,23.9,30.30,South,172,2.0,3.0,56,0.00,,BKN070,0.00,524.00,VWS V14.01,2013-03-29 14:54:00,
2013-03-29 09:59:00,38.4,24.1,30.30,South,172,2.0,3.0,56,0.00,,BKN070,0.00,457.00,VWS V14.01,2013-03-29 14:59:00,
2013-03-29 10:04:00,38.3,24.0,30.31,South,188,3.0,4.0,56,0.00,,SCT070,0.00,320.00,VWS V14.01,2013-03-29 15:04:00,
2013-03-29 10:09:00,38.1,23.4,30.31,South,171,2.0,5.0,55,0.00,,SCT070,0.00,417.00,VWS V14.01,2013-03-29 15:09:00,
2013-03-29 10:14:00,38.6,23.4,30.31,South,184,4.0,5.0,54,0.00,,SCT070,0.00,431.00,VWS V14.01,2013-03-29 15:14:00,
2013-03-29 10:19:00,39.0,22.9,30.31,South,188,4.0,5.0,52,0.00,,SCT070,0.00,352.00,VWS V14.01,2013-03-29 15:19:00,
2013-03-29 10:24:00,39.2,23.5,30.31,South,184,4.0,6.0,53,0.00,,SCT070,0.00,353.00,VWS V14.01,2013-03-29 15:24:00,
2013-03-29 10:29:00,39.2,23.1,30.31,South,180,4.0,6.0,52,0.00,,SCT070,0.00,343.00,VWS V14.01,2013-03-29 15:29:00,
2013-03-29 10:34:00,39.3,23.2,30.31,South,176,3.0,5.0,52,0.00,,SCT070,0.00,343.00,VWS V14.01,2013-03-29 15:34:00,
2013-03-29 10:39:00,39.7,23.1,30.30,ESE,117,2.0,5.0,51,0.00,,SCT070,0.00,397.00,VWS V14.01,2013-03-29 15:39:00,
2013-03-29 10:44:00,40.3,23.1,30.30,ESE,119,5.0,5.0,50,0.00,,SCT070,0.00,482.00,VWS V14.01,2013-03-29 15:44:00,
2013-03-29 10:49:00,40.7,23.5,30.30,South,173,2.0,5.0,50,0.00,,SCT070,0.00,471.00,VWS V14.01,2013-03-29 15:49:00,
2013-03-29 10:54:00,40.9,24.2,30.30,South,191,6.0,6.0,51,0.00,,SCT070,0.00,519.00,VWS V14.01,2013-03-29 15:54:00,
2013-03-29 10:59:00,40.9,22.7,30.30,SE,143,2.0,7.0,48,0.00,,SCT070,0.00,408.00,VWS V14.01,2013-03-29 15:59:00,
2013-03-29 11:04:00,41.2,23.0,30.30,South,173,2.0,5.0,48,0.00,,OVC065,0.00,294.00,VWS V14.01,2013-03-29 16:04:00,
2013-03-29 11:09:00,41.4,22.7,30.30,SE,138,1.0,5.0,47,0.00,,OVC065,0.00,519.00,VWS V14.01,2013-03-29 16:09:00,
2013-03-29 11:14:00,41.7,23.5,30.29,SSE,157,2.0,5.0,48,0.00,,OVC065,0.00,691.00,VWS V14.01,2013-03-29 16:14:00,
2013-03-29 11:19:00,42.3,23.0,30.29,ESE,112,1.0,5.0,46,0.00,,OVC065,0.00,452.00,VWS V14.01,2013-03-29 16:19:00,
2013-03-29 11:24:00,42.5,23.2,30.29,ESE,115,1.0,5.0,46,0.00,,OVC065,0.00,496.00,VWS V14.01,2013-03-29 16:24:00,
2013-03-29 11:29:00,42.4,22.6,30.29,South,172,2.0,6.0,45,0.00,,OVC065,0.00,483.00,VWS V14.01,2013-03-29 16:29:00,
2013-03-29 11:34:00,42.9,23.0,30.29,South,174,1.0,5.0,45,0.00,,OVC065,0.00,485.00,VWS V14.01,2013-03-29 16:34:00,
2013-03-29 11:39:00,43.2,23.3,30.28,South,177,3.0,5.0,45,0.00,,OVC065,0.00,341.00,VWS V14.01,2013-03-29 16:39:00,
2013-03-29 11:44:00,43.2,24.4,30.28,SSW,208,5.0,8.0,47,0.00,,OVC065,0.00,563.00,VWS V14.01,2013-03-29 16:44:00,
2013-03-29 11:49:00,42.7,23.9,30.28,SSW,193,8.0,10.0,47,0.00,,OVC065,0.00,517.00,VWS V14.01,2013-03-29 16:49:00,
2013-03-29 11:54:00,42.5,22.7,30.28,SSW,194,7.0,10.0,45,0.00,,OVC065,0.00,538.00,VWS V14.01,2013-03-29 16:54:00,
2013-03-29 11:59:00,42.8,23.0,30.28,SSW,203,8.0,10.0,45,0.00,,OVC065,0.00,427.00,VWS V14.01,2013-03-29 16:59:00,
2013-03-29 12:04:00,43.1,22.1,30.28,SE,131,1.0,7.0,43,0.00,,FEW065,0.00,603.00,VWS V14.01,2013-03-29 17:04:00,
2013-03-29 12:09:00,43.7,23.2,30.28,South,191,4.0,8.0,44,0.00,,FEW065,0.00,566.00,VWS V14.01,2013-03-29 17:09:00,
2013-03-29 12:14:00,43.8,22.2,30.28,SSW,201,4.0,8.0,42,0.00,,FEW065,0.00,668.00,VWS V14.01,2013-03-29 17:14:00,
2013-03-29 12:19:00,44.3,22.7,30.27,SE,138,2.0,8.0,42,0.00,,FEW065,0.00,536.00,VWS V14.01,2013-03-29 17:19:00,
2013-03-29 12:24:00,44.5,23.4,30.27,South,175,5.0,10.0,43,0.00,,FEW065,0.00,541.00,VWS V14.01,2013-03-29 17:24:00,
2013-03-29 12:29:00,44.3,23.8,30.27,South,178,3.0,10.0,44,0.00,,FEW065,0.00,526.00,VWS V14.01,2013-03-29 17:29:00,
2013-03-29 12:34:00,44.2,23.7,30.27,SSW,195,7.0,7.0,44,0.00,,FEW065,0.00,531.00,VWS V14.01,2013-03-29 17:34:00,
2013-03-29 12:39:00,44.3,24.3,30.27,SSE,164,4.0,9.0,45,0.00,,FEW065,0.00,533.00,VWS V14.01,2013-03-29 17:39:00,
2013-03-29 12:44:00,44.6,23.5,30.27,ESE,118,4.0,9.0,43,0.00,,FEW065,0.00,856.00,VWS V14.01,2013-03-29 17:44:00,
2013-03-29 12:49:00,45.0,23.3,30.26,South,177,0.0,9.0,42,0.00,,FEW065,0.00,580.00,VWS V14.01,2013-03-29 17:49:00,
2013-03-29 12:54:00,45.7,23.9,30.26,South,171,1.0,9.0,42,0.00,,FEW065,0.00,1018.00,VWS V14.01,2013-03-29 17:54:00,
2013-03-29 12:59:00,45.8,22.9,30.26,South,182,5.0,10.0,40,0.00,,FEW065,0.00,1062.00,VWS V14.01,2013-03-29 17:59:00,
2013-03-29 13:05:00,45.5,22.6,30.26,SSE,157,3.0,10.0,40,0.00,,FEW060,0.00,568.00,VWS V14.01,2013-03-29 18:05:00,
2013-03-29 13:10:00,45.3,23.6,30.26,South,183,7.0,10.0,42,0.00,,FEW060,0.00,571.00,VWS V14.01,2013-03-29 18:10:00,
2013-03-29 13:15:00,45.4,22.5,30.26,SSW,196,7.0,10.0,40,0.00,,FEW060,0.00,918.00,VWS V14.01,2013-03-29 18:15:00,
2013-03-29 13:20:00,45.2,22.9,30.26,SSW,213,7.0,11.0,41,0.00,,FEW060,0.00,875.00,VWS V14.01,2013-03-29 18:20:00,
2013-03-29 13:25:00,45.3,23.0,30.25,SW,223,7.0,11.0,41,0.00,,FEW060,0.00,879.00,VWS V14.01,2013-03-29 18:25:00,
2013-03-29 13:30:00,45.6,22.1,30.25,South,178,5.0,5.0,39,0.00,,FEW060,0.00,877.00,VWS V14.01,2013-03-29 18:30:00,
2013-03-29 13:35:00,46.0,23.0,30.25,South,183,2.0,8.0,40,0.00,,FEW060,0.00,867.00,VWS V14.01,2013-03-29 18:35:00,
2013-03-29 13:40:00,46.5,22.9,30.25,South,171,7.0,10.0,39,0.00,,FEW060,0.00,677.00,VWS V14.01,2013-03-29 18:40:00,
2013-03-29 13:45:00,46.4,22.8,30.25,SW,223,7.0,10.0,39,0.00,,FEW060,0.00,585.00,VWS V14.01,2013-03-29 18:45:00,
2013-03-29 13:50:00,45.9,22.4,30.25,SSW,213,4.0,10.0,39,0.00,,FEW060,0.00,675.00,VWS V14.01,2013-03-29 18:50:00,
2013-03-29 13:55:00,46.0,22.5,30.25,SSW,208,5.0,10.0,39,0.00,,FEW060,0.00,577.00,VWS V14.01,2013-03-29 18:55:00,
2013-03-29 14:00:00,46.1,23.1,30.24,South,187,1.0,3.0,40,0.00,,SCT060,0.00,519.00,VWS V14.01,2013-03-29 19:00:00,
2013-03-29 14:05:00,46.4,22.8,30.24,SSW,197,1.0,6.0,39,0.00,,SCT060,0.00,494.00,VWS V14.01,2013-03-29 19:05:00,
2013-03-29 14:10:00,46.3,23.3,30.24,WSW,240,2.0,7.0,40,0.00,,SCT060,0.00,522.00,VWS V14.01,2013-03-29 19:10:00,
2013-03-29 14:15:00,46.3,22.7,30.24,South,178,1.0,7.0,39,0.00,,SCT060,0.00,508.00,VWS V14.01,2013-03-29 19:15:00,
2013-03-29 14:20:00,46.6,24.2,30.24,SW,224,3.0,7.0,41,0.00,,SCT060,0.00,540.00,VWS V14.01,2013-03-29 19:20:00,
2013-03-29 14:25:00,46.6,23.6,30.24,South,180,3.0,7.0,40,0.00,,SCT060,0.00,601.00,VWS V14.01,2013-03-29 19:25:00,
2013-03-29 14:30:00,47.1,22.8,30.24,South,178,5.0,7.0,38,0.00,,SCT060,0.00,563.00,VWS V14.01,2013-03-29 19:30:00,
2013-03-29 14:35:00,47.4,22.5,30.24,SSE,158,3.0,7.0,37,0.00,,SCT060,0.00,582.00,VWS V14.01,2013-03-29 19:35:00,
2013-03-29 14:40:00,48.0,23.6,30.23,South,182,1.0,7.0,38,0.00,,SCT060,0.00,670.00,VWS V14.01,2013-03-29 19:40:00,
2013-03-29 14:45:00,47.9,22.2,30.23,South,191,6.0,9.0,36,0.00,,SCT060,0.00,670.00,VWS V14.01,2013-03-29 19:45:00,
2013-03-29 14:50:00,47.5,23.2,30.23,South,191,3.0,9.0,38,0.00,,SCT060,0.00,519.00,VWS V14.01,2013-03-29 19:50:00,
2013-03-29 14:55:00,47.4,23.7,30.23,SW,217,8.0,9.0,39,0.00,,SCT060,0.00,506.00,VWS V14.01,2013-03-29 19:55:00,
2013-03-29 15:00:00,47.3,23.0,30.23,South,179,8.0,8.0,38,0.00,,OVC095,0.00,517.00,VWS V14.01,2013-03-29 20:00:00,
2013-03-29 15:05:00,47.5,23.2,30.22,South,189,4.0,9.0,38,0.00,,OVC095,0.00,550.00,VWS V14.01,2013-03-29 20:05:00,
2013-03-29 15:10:00,47.3,24.2,30.22,SW,217,4.0,9.0,40,0.00,,OVC095,0.00,533.00,VWS V14.01,2013-03-29 20:10:00,
2013-03-29 15:15:00,46.9,23.9,30.22,South,176,1.0,9.0,40,0.00,,OVC095,0.00,606.00,VWS V14.01,2013-03-29 20:15:00,
2013-03-29 15:20:00,47.4,23.7,30.22,SSE,158,1.0,9.0,39,0.00,,OVC095,0.00,519.00,VWS V14.01,2013-03-29 20:20:00,
2013-03-29 15:25:00,47.7,22.7,30.22,SE,130,1.0,9.0,37,0.00,,OVC095,0.00,561.00,VWS V14.01,2013-03-29 20:25:00,
2013-03-29 15:30:00,48.2,25.0,30.21,SW,220,3.0,5.0,40,0.00,,OVC095,0.00,823.00,VWS V14.01,2013-03-29 20:30:00,
2013-03-29 15:35:00,48.5,23.4,30.21,SSE,163,3.0,6.0,37,0.00,,OVC095,0.00,793.00,VWS V14.01,2013-03-29 20:35:00,
2013-03-29 15:40:00,48.5,24.1,30.21,South,175,2.0,7.0,38,0.00,,OVC095,0.00,367.00,VWS V14.01,2013-03-29 20:40:00,
2013-03-29 15:45:00,48.1,24.3,30.21,SW,219,5.0,8.0,39,0.00,,OVC095,0.00,364.00,VWS V14.01,2013-03-29 20:45:00,
2013-03-29 15:50:00,47.4,24.3,30.21,SW,217,2.0,8.0,40,0.00,,OVC095,0.00,341.00,VWS V14.01,2013-03-29 20:50:00,
2013-03-29 15:55:00,47.3,23.6,30.21,SSW,192,1.0,8.0,39,0.00,,OVC095,0.00,415.00,VWS V14.01,2013-03-29 20:55:00,
2013-03-29 16:00:00,47.8,24.7,30.20,SSW,200,3.0,3.0,40,0.00,,OVC085,0.00,485.00,VWS V14.01,2013-03-29 21:00:00,
2013-03-29 16:05:00,48.3,24.5,30.20,South,178,2.0,8.0,39,0.00,,OVC085,0.00,761.00,VWS V14.01,2013-03-29 21:05:00,
2013-03-29 16:10:00,48.8,25.6,30.20,South,185,6.0,8.0,40,0.00,,OVC085,0.00,631.00,VWS V14.01,2013-03-29 21:10:00,
2013-03-29 16:15:00,48.5,24.7,30.20,SSW,207,5.0,8.0,39,0.00,,OVC085,0.00,323.00,VWS V14.01,2013-03-29 21:15:00,
2013-03-29 16:20:00,48.0,25.4,30.20,SSW,209,7.0,9.0,41,0.00,,OVC085,0.00,403.00,VWS V14.01,2013-03-29 21:20:00,
2013-03-29 16:25:00,47.3,25.4,30.20,SSW,204,4.0,9.0,42,0.00,,OVC085,0.00,302.00,VWS V14.01,2013-03-29 21:25:00,
2013-03-29 16:30:00,47.3,24.2,30.20,SE,135,2.0,3.0,40,0.00,,OVC085,0.00,348.00,VWS V14.01,2013-03-29 21:30:00,
2013-03-29 16:35:00,47.7,25.2,30.20,South,184,6.0,6.0,41,0.00,,OVC085,0.00,332.00,VWS V14.01,2013-03-29 21:35:00,
2013-03-29 16:40:00,47.8,25.3,30.19,SSW,211,7.0,8.0,41,0.00,,OVC085,0.00,399.00,VWS V14.01,2013-03-29 21:40:00,
2013-03-29 16:45:00,47.6,25.1,30.19,South,173,4.0,8.0,41,0.00,,OVC085,0.00,288.00,VWS V14.01,2013-03-29 21:45:00,
2013-03-29 16:50:00,47.7,26.3,30.19,South,176,3.0,8.0,43,0.00,,OVC085,0.00,431.00,VWS V14.01,2013-03-29 21:50:00,
2013-03-29 16:55:00,47.9,26.5,30.19,South,187,5.0,8.0,43,0.00,,OVC085,0.00,446.00,VWS V14.01,2013-03-29 21:55:00,
2013-03-29 17:00:00,47.9,25.9,30.19,SSE,163,2.0,3.0,42,0.00,,OVC085,0.00,188.00,VWS V14.01,2013-03-29 22:00:00,
2013-03-29 17:05:00,47.5,26.1,30.19,South,184,3.0,7.0,43,0.00,,OVC085,0.00,171.00,VWS V14.01,2013-03-29 22:05:00,
2013-03-29 17:10:00,47.2,25.9,30.19,SE,133,3.0,7.0,43,0.00,,OVC085,0.00,260.00,VWS V14.01,2013-03-29 22:10:00,
2013-03-29 17:15:00,47.3,26.0,30.19,SSW,195,7.0,10.0,43,0.00,,OVC085,0.00,388.00,VWS V14.01,2013-03-29 22:15:00,
2013-03-29 17:20:00,47.5,26.1,30.19,SSE,155,4.0,10.0,43,0.00,,OVC085,0.00,366.00,VWS V14.01,2013-03-29 22:20:00,
2013-03-29 17:25:00,47.6,26.2,30.19,South,182,3.0,10.0,43,0.00,,OVC085,0.00,374.00,VWS V14.01,2013-03-29 22:25:00,
2013-03-29 17:30:00,47.3,26.0,30.18,South,182,3.0,4.0,43,0.00,,OVC085,0.00,146.00,VWS V14.01,2013-03-29 22:30:00,
2013-03-29 17:35:00,47.4,27.1,30.19,South,180,7.0,8.0,45,0.00,,OVC085,0.00,306.00,VWS V14.01,2013-03-29 22:35:00,
2013-03-29 17:40:00,46.9,26.7,30.19,South,183,6.0,10.0,45,0.00,,OVC085,0.00,151.00,VWS V14.01,2013-03-29 22:40:00,
2013-03-29 17:45:00,46.3,26.7,30.19,SSW,201,5.0,10.0,46,0.00,,OVC085,0.00,91.00,VWS V14.01,2013-03-29 22:45:00,
2013-03-29 17:50:00,45.9,25.8,30.19,SSW,192,7.0,10.0,45,0.00,,OVC085,0.00,86.00,VWS V14.01,2013-03-29 22:50:00,
2013-03-29 17:55:00,45.7,26.6,30.19,SSW,205,7.0,10.0,47,0.00,,OVC085,0.00,81.00,VWS V14.01,2013-03-29 22:55:00,
2013-03-29 18:00:00,45.4,26.4,30.19,SSW,194,4.0,10.0,47,0.00,,OVC065,0.00,76.00,VWS V14.01,2013-03-29 23:00:00,
2013-03-29 18:05:00,45.2,26.7,30.19,South,184,5.0,10.0,48,0.00,,OVC065,0.00,95.00,VWS V14.01,2013-03-29 23:05:00,
2013-03-29 18:10:00,45.5,27.0,30.19,South,181,3.0,10.0,48,0.00,,OVC065,0.00,197.00,VWS V14.01,2013-03-29 23:10:00,
2013-03-29 18:15:00,45.8,26.7,30.19,South,190,1.0,10.0,47,0.00,,OVC065,0.00,123.00,VWS V14.01,2013-03-29 23:15:00,
2013-03-29 18:20:00,45.8,26.7,30.18,SSE,166,2.0,10.0,47,0.00,,OVC065,0.00,90.00,VWS V14.01,2013-03-29 23:20:00,
2013-03-29 18:25:00,45.5,26.5,30.18,South,178,3.0,10.0,47,0.00,,OVC065,0.00,58.00,VWS V14.01,2013-03-29 23:25:00,
2013-03-29 18:30:00,45.4,26.4,30.18,South,178,0.0,2.0,47,0.00,,OVC065,0.00,40.00,VWS V14.01,2013-03-29 23:30:00,
2013-03-29 18:35:00,45.2,25.7,30.18,South,184,1.0,3.0,46,0.00,,OVC065,0.00,53.00,VWS V14.01,2013-03-29 23:35:00,
2013-03-29 18:40:00,45.1,26.1,30.18,South,184,0.0,3.0,47,0.00,,OVC065,0.00,53.00,VWS V14.01,2013-03-29 23:40:00,
2013-03-29 18:45:00,45.0,26.0,30.18,South,177,2.0,7.0,47,0.00,,OVC065,0.00,35.00,VWS V14.01,2013-03-29 23:45:00,
2013-03-29 18:50:00,44.8,25.8,30.17,South,179,0.0,7.0,47,0.00,,OVC065,0.00,28.00,VWS V14.01,2013-03-29 23:50:00,
2013-03-29 18:55:00,44.7,26.2,30.17,South,179,1.0,7.0,48,0.00,,OVC065,0.00,23.00,VWS V14.01,2013-03-29 23:55:00,
2013-03-29 19:00:00,44.5,26.0,30.17,South,179,2.0,2.0,48,0.00,,BKN080,0.00,18.00,VWS V14.01,2013-03-30 00:00:00,
2013-03-29 19:05:00,44.3,25.9,30.17,South,179,0.0,3.0,48,0.00,,BKN080,0.00,14.00,VWS V14.01,2013-03-30 00:05:00,
2013-03-29 19:10:00,44.2,26.3,30.17,South,179,0.0,3.0,49,0.00,,BKN080,0.00,12.00,VWS V14.01,2013-03-30 00:10:00,
2013-03-29 19:15:00,44.0,25.6,30.17,SE,142,1.0,3.0,48,0.00,,BKN080,0.00,9.00,VWS V14.01,2013-03-30 00:15:00,
2013-03-29 19:20:00,43.9,26.0,30.17,SSE,164,0.0,3.0,49,0.00,,BKN080,0.00,7.00,VWS V14.01,2013-03-30 00:20:00,
2013-03-29 19:25:00,43.6,25.7,30.16,SSE,164,1.0,3.0,49,0.00,,BKN080,0.00,0.00,VWS V14.01,2013-03-30 00:25:00,
2013-03-29 19:31:00,43.4,25.5,30.16,SSE,164,0.0,1.0,49,0.00,,BKN080,0.00,0.00,VWS V14.01,2013-03-30 00:31:00,
2013-03-29 19:36:00,43.2,25.4,30.16,SSE,164,0.0,1.0,49,0.00,,BKN080,0.00,0.00,VWS V14.01,2013-03-30 00:36:00,
2013-03-29 19:41:00,43.1,25.3,30.16,SSE,164,1.0,1.0,49,0.00,,BKN080,0.00,0.00,VWS V14.01,2013-03-30 00:41:00,
2013-03-29 19:46:00,42.9,25.6,30.16,SSE,164,0.0,1.0,50,0.00,,BKN080,0.00,0.00,VWS V14.01,2013-03-30 00:46:00,
2013-03-29 19:51:00,42.9,25.6,30.16,SSE,164,0.0,2.0,50,0.00,,BKN080,0.00,0.00,VWS V14.01,2013-03-30 00:51:00,
2013-03-29 19:56:00,42.7,25.9,30.16,SSE,164,0.0,2.0,51,0.00,,BKN080,0.00,0.00,VWS V14.01,2013-03-30 00:56:00,
2013-03-29 20:01:00,42.5,25.7,30.16,SSE,164,1.0,1.0,51,0.00,,BKN090,0.00,0.00,VWS V14.01,2013-03-30 01:01:00,
2013-03-29 20:06:00,42.3,25.5,30.16,SSE,164,0.0,2.0,51,0.00,,BKN090,0.00,0.00,VWS V14.01,2013-03-30 01:06:00,
2013-03-29 20:11:00,42.2,25.4,30.16,SSE,164,0.0,2.0,51,0.00,,BKN090,0.00,0.00,VWS V14.01,2013-03-30 01:11:00,
2013-03-29 20:16:00,42.1,25.3,30.16,SSE,164,0.0,2.0,51,0.00,,BKN090,0.00,0.00,VWS V14.01,2013-03-30 01:16:00,
2013-03-29 20:21:00,42.0,25.2,30.16,SSE,164,0.0,2.0,51,0.00,,BKN090,0.00,0.00,VWS V14.01,2013-03-30 01:21:00,
2013-03-29 20:26:00,41.9,25.1,30.16,SSE,164,1.0,2.0,51,0.00,,BKN090,0.00,0.00,VWS V14.01,2013-03-30 01:26:00,
2013-03-29 20:31:00,42.0,25.2,30.16,SE,140,0.0,1.0,51,0.00,,BKN090,0.00,0.00,VWS V14.01,2013-03-30 01:31:00,
2013-03-29 20:36:00,42.0,25.2,30.16,SE,132,2.0,3.0,51,0.00,,BKN090,0.00,0.00,VWS V14.01,2013-03-30 01:36:00,
2013-03-29 20:41:00,42.0,25.2,30.16,SE,128,1.0,4.0,51,0.00,,BKN090,0.00,0.00,VWS V14.01,2013-03-30 01:41:00,
2013-03-29 20:47:00,41.8,25.0,30.16,SE,128,0.0,4.0,51,0.00,,BKN090,0.00,0.00,VWS V14.01,2013-03-30 01:47:00,
2013-03-29 20:52:00,41.6,25.3,30.16,SE,129,1.0,4.0,52,0.00,,BKN090,0.00,0.00,VWS V14.01,2013-03-30 01:52:00,
2013-03-29 20:57:00,41.5,25.2,30.16,SE,129,1.0,4.0,52,0.00,,BKN090,0.00,0.00,VWS V14.01,2013-03-30 01:57:00,
2013-03-29 21:02:00,41.4,25.1,30.16,SE,144,0.0,3.0,52,0.00,,BKN090,0.00,0.00,VWS V14.01,2013-03-30 02:02:00,
2013-03-29 21:07:00,41.4,25.1,30.16,SE,129,1.0,4.0,52,0.00,,BKN090,0.00,0.00,VWS V14.01,2013-03-30 02:07:00,
2013-03-29 21:12:00,41.3,25.0,30.15,SE,129,1.0,4.0,52,0.00,,BKN090,0.00,0.00,VWS V14.01,2013-03-30 02:12:00,
2013-03-29 21:17:00,41.2,25.4,30.15,SE,129,0.0,4.0,53,0.00,,BKN090,0.00,0.00,VWS V14.01,2013-03-30 02:17:00,
2013-03-29 21:22:00,41.1,25.3,30.15,SE,129,1.0,4.0,53,0.00,,BKN090,0.00,0.00,VWS V14.01,2013-03-30 02:22:00,
2013-03-29 21:27:00,41.0,25.2,30.15,SE,129,0.0,4.0,53,0.00,,BKN090,0.00,0.00,VWS V14.01,2013-03-30 02:27:00,
2013-03-29 21:32:00,40.9,25.1,30.16,ESE,123,1.0,2.0,53,0.00,,BKN090,0.00,0.00,VWS V14.01,2013-03-30 02:32:00,
2013-03-29 21:37:00,40.8,25.0,30.15,SE,138,2.0,3.0,53,0.00,,BKN090,0.00,0.00,VWS V14.01,2013-03-30 02:37:00,
2013-03-29 21:42:00,40.8,25.0,30.15,SE,128,3.0,3.0,53,0.00,,BKN090,0.00,0.00,VWS V14.01,2013-03-30 02:42:00,
2013-03-29 21:47:00,40.8,25.0,30.15,SE,131,1.0,4.0,53,0.00,,BKN090,0.00,0.00,VWS V14.01,2013-03-30 02:47:00,
2013-03-29 21:52:00,40.8,25.0,30.15,SE,131,0.0,4.0,53,0.00,,BKN090,0.00,0.00,VWS V14.01,2013-03-30 02:52:00,
2013-03-29 21:57:00,40.7,24.9,30.15,SE,131,1.0,4.0,53,0.00,,BKN090,0.00,0.00,VWS V14.01,2013-03-30 02:57:00,
2013-03-29 22:02:00,40.5,25.2,30.15,SE,131,0.0,1.0,54,0.00,,BKN085,0.00,0.00,VWS V14.01,2013-03-30 03:02:00,
2013-03-29 22:07:00,40.3,25.0,30.15,SE,131,0.0,1.0,54,0.00,,BKN085,0.00,0.00,VWS V14.01,2013-03-30 03:07:00,
2013-03-29 22:12:00,40.2,25.3,30.15,SE,131,1.0,3.0,55,0.00,,BKN085,0.00,0.00,VWS V14.01,2013-03-30 03:12:00,
2013-03-29 22:17:00,40.2,25.3,30.15,SE,131,1.0,3.0,55,0.00,,BKN085,0.00,0.00,VWS V14.01,2013-03-30 03:17:00,
2013-03-29 22:22:00,40.2,25.3,30.15,SE,131,0.0,3.0,55,0.00,,BKN085,0.00,0.00,VWS V14.01,2013-03-30 03:22:00,
2013-03-29 22:27:00,40.1,25.7,30.15,SE,131,1.0,3.0,56,0.00,,BKN085,0.00,0.00,VWS V14.01,2013-03-30 03:27:00,
2013-03-29 22:32:00,40.1,25.7,30.15,SE,131,0.0,1.0,56,0.00,,BKN085,0.00,0.00,VWS V14.01,2013-03-30 03:32:00,
2013-03-29 22:37:00,40.0,26.0,30.15,SE,131,1.0,1.0,57,0.00,,BKN085,0.00,0.00,VWS V14.01,2013-03-30 03:37:00,
2013-03-29 22:42:00,40.0,26.0,30.14,SE,131,0.0,2.0,57,0.00,,BKN085,0.00,0.00,VWS V14.01,2013-03-30 03:42:00,
2013-03-29 22:47:00,39.9,25.9,30.14,SE,131,1.0,2.0,57,0.00,,BKN085,0.00,0.00,VWS V14.01,2013-03-30 03:47:00,
2013-03-29 22:52:00,39.9,25.9,30.14,South,186,0.0,3.0,57,0.00,,BKN085,0.00,0.00,VWS V14.01,2013-03-30 03:52:00,
2013-03-29 22:57:00,39.8,25.8,30.14,South,186,1.0,3.0,57,0.00,,BKN085,0.00,0.00,VWS V14.01,2013-03-30 03:57:00,
2013-03-29 23:00:00,39.8,25.8,30.14,SE,125,0.0,0.0,57,0.00,,BKN085,0.00,0.00,VWS V14.01,2013-03-30 04:00:00,
2013-03-29 23:05:00,39.9,25.9,30.14,SE,125,1.0,2.0,57,0.00,,OVC085,0.00,0.00,VWS V14.01,2013-03-30 04:05:00,
2013-03-29 23:10:00,40.0,26.0,30.14,SE,128,1.0,4.0,57,0.00,,OVC085,0.00,0.00,VWS V14.01,2013-03-30 04:10:00,
2013-03-29 23:15:00,39.9,26.3,30.14,SE,128,1.0,4.0,58,0.00,,OVC085,0.00,0.00,VWS V14.01,2013-03-30 04:15:00,
2013-03-29 23:20:00,40.1,26.5,30.13,SE,132,2.0,4.0,58,0.00,,OVC085,0.00,0.00,VWS V14.01,2013-03-30 04:20:00,
2013-03-29 23:25:00,40.2,26.6,30.13,SE,132,0.0,4.0,58,0.00,,OVC085,0.00,0.00,VWS V14.01,2013-03-30 04:25:00,
2013-03-29 23:30:00,40.2,26.6,30.13,SE,132,1.0,1.0,58,0.00,,OVC085,0.00,0.00,VWS V14.01,2013-03-30 04:30:00,
2013-03-29 23:35:00,40.2,26.6,30.13,SE,132,1.0,1.0,58,0.00,,OVC085,0.00,0.00,VWS V14.01,2013-03-30 04:35:00,
2013-03-29 23:40:00,40.3,26.7,30.12,SE,132,0.0,2.0,58,0.00,,OVC085,0.00,0.00,VWS V14.01,2013-03-30 04:40:00,
2013-03-29 23:45:00,40.3,26.3,30.12,SE,132,0.0,2.0,57,0.00,,OVC085,0.00,0.00,VWS V14.01,2013-03-30 04:45:00,
2013-03-29 23:50:00,40.2,26.6,30.12,SE,132,0.0,2.0,58,0.00,,OVC085,0.00,0.00,VWS V14.01,2013-03-30 04:50:00,
2013-03-29 23:55:00,40.1,26.5,30.12,SE,132,0.0,2.0,58,0.00,,OVC085,0.00,0.00,VWS V14.01,2013-03-30 04:55:00,